Regional Weather Roundup
Issued by NWS

Home | Current Version | Previous Version | Graphics & Text | Print | Product List | Glossary On
Versions: 1 2 3 4 5 6 7 8 9 10 11 12 13 14 15 16 17 18 19 20 21 22 23 24 25 26 27 28 29 30 31 32 33 34 35 36 37 38 39 40 41 42 43 44 45 46 47 48 49 50
000
ASUS43 KMPX 040810
RWRMN
WEATHER ROUNDUP FOR MINNESOTA
NATIONAL WEATHER SERVICE TWIN CITIES/CHANHASSEN MN
200 AM CST WED MAR 04 2015


NOTE: "FAIR" INDICATES FEW OR NO CLOUDS BELOW 12,000 FEET WITH NO
SIGNIFICANT WEATHER AND/OR OBSTRUCTIONS TO VISIBILITY. N/A MEANS
CURRENT SKY AND/OR WEATHER CONDITIONS ARE NOT AVAILABLE.

MNZ060>063-068>070-040900-
   Twin Cities Metro

CITY           SKY/WX    TMP DP  RH WIND       PRES   REMARKS
TWIN CITIES    PTCLDY     3  -7  63 W9        30.08R WCI -12
ST PAUL        CLEAR      4  -4  69 W10       30.09R WCI -11
CRYSTAL        CLEAR      3  -7  63 W8        30.07R WCI -10
BLAINE         CLEAR      5  -2  72 W10       30.05R WCI -10
LAKEVILLE      PTCLDY     1  -8  66 W15       30.07R WCI -18
EDEN PRAIRIE   CLEAR      3  -8  60 W8        30.08R WCI -10
SOUTH ST PAUL  CLEAR      6  -4  63 W5        30.08R WCI  -3
LAKE ELMO      FAIR       5  -4  66 W6        30.06R WCI  -6
$$
MNZ001>005-007-008-013>017-022>024-027-028-040900-
   Northwest Minnesota

CITY           SKY/WX    TMP DP  RH WIND       PRES   REMARKS
BEMIDJI        CLEAR     -6 -11  81 W8        29.95R HAZE    WCI -22
HALLOCK        PTCLDY    -6 -13  71 NW8       30.01R WCI -21
ROSEAU         CLEAR     -8 -13  77 W9        29.96R WCI -25
WARROAD        CLEAR     -9 -15  77 W6        29.95R WCI -23
THIEF RVR FALL CLEAR     -6  -9  84 W9        29.99R WCI -22
CROOKSTON      CLEAR     -2  -9  71 W10       30.05R WCI -19
FOSSTON        CLEAR     -9 -13  84 SW7       29.99R WCI -24
DETROIT LAKES  CLEAR      0  -8  71 NW14      30.01R WCI -19
MOORHEAD       CLEAR      0  -6  78 NW8       30.08R WCI -15
PARK RAPIDS    CLEAR     -6 -11  79 W8        29.96R WCI -21
MAHNOMEN       FAIR      -4 -10  74 W14       30.00S WCI -24
$$
MNZ006-009>011-018-025>026-040900-
   North Central Minnesota

CITY           SKY/WX    TMP DP  RH WIND       PRES   REMARKS
BAUDETTE       CLEAR    -10 -15  78 W8        29.91R WCI -26
FLAG ISLAND    CLEAR    -11 -17  77 W7        29.93R WCI -26
INTL FALLS     CLEAR     -7 -15  68 W8        29.90R WCI -23
WASKISH        CLEAR     -8 -11  84 W8        29.94R WCI -23
BIG FORK       CLOUDY    -6 -11  77 W3        29.92R
LONGVILLE      PTCLDY    -6 -11  77 W5        29.96R WCI -17
GRAND RAPIDS   CLOUDY    -4  -9  77 W10G16    29.91R WCI -21
CRANE LAKE     CLEAR     -6 -13  71 NW5       29.90R WCI -17
ORR            CLEAR     -8 -13  77 W9        29.85R WCI -25
COOK           PTCLDY    -6 -11  77 W8        29.89R WCI -21
WALKER         FAIR      -4 -12  68 W6        29.95S WCI -17
$$
MNZ012-019>021-037-040900-
   Northeast Minnesota

CITY           SKY/WX    TMP DP  RH WIND       PRES   REMARKS
DULUTH         CLEAR     -2 -11  65 W14       29.88R WCI -21
ELY            CLEAR     -4  -9  77 W9        29.83R HAZE    WCI -20
HIBBING        CLEAR     -5 -13  68 W9        29.90R WCI -22
EVELETH        CLEAR     -2  -9  71 W7        29.89R WCI -16
DULUTH HARBOR  CLEAR      1  -9  60 W15       29.99R WCI -18
TWO HARBORS    CLEAR      1  -9  60 W6G17     29.87R WCI -10
SILVER BAY     CLEAR      1  -9  60 W7        29.84R WCI -11
GRAND MARAIS     N/A      3  -7  63 W9G17     29.86R WCI -12
G MARAIS ARPRT PTCLDY    -6 -15  65 W13G24    29.70R WCI -25
$$
MNZ029>031-032-039>041-046>048-054>057-064-040900-
   West Central Minnesota

CITY           SKY/WX    TMP DP  RH WIND       PRES   REMARKS
FERGUS FALLS   CLEAR     -6 -11  77 W8        30.11R WCI -21
WHEATON        CLEAR     -4 -11  71 W8        30.13R WCI -19
MORRIS         CLEAR     -2  -9  71 W13       30.09R WCI -21
ALEXANDRIA     CLEAR     -5 -11  75 W8        30.04R WCI -20
ELBOW LAKE     FAIR      -4  -9  78 W13       30.06R WCI -23
WADENA         PTCLDY    -8 -13  77 W7        30.00R WCI -22
GLENWOOD       CLEAR     -4  -9  77 W8        30.06R WCI -19
APPLETON       CLEAR      0  -9  65 W10       30.13R WCI -17
BENSON         CLEAR     -2  -9  71 NW10      30.10R WCI -19
ORTONVILLE     CLEAR     -2  -9  71 W7        30.12R WCI -16
MADISON        CLEAR      3  -6  66 NW15      30.14R WCI -15
WILLMAR        FAIR       1  -8  66 W9        30.10R WCI -14
$$
MNZ033>034-036-042>043-049>051-058-059-040900-
   Central Minnesota

CITY           SKY/WX    TMP DP  RH WIND       PRES   REMARKS
ST CLOUD       CLEAR      0  -8  69 W12       30.05R WCI -17
SAUK CENTRE    FAIR      -4 -10  75 W8        30.06R WCI -19
PAYNESVILLE    CLEAR     -3  -9  75 W8        30.07R WCI -18
AITKIN         CLEAR      0  -9  65 W5        29.96S WCI -10
PINE RIVER     PTCLDY    -6  -9  84 W3        30.01R
BRAINERD       CLEAR     -3  -9  75 W8        30.00R WCI -18
STAPLES        CLEAR     -9 -15  77 W8        30.01R WCI -26
LITTLE FALLS   CLEAR      0  -9  65 W7        30.04R WCI -13
LITCHFIELD     CLEAR      1  -6  71 NW6       30.08R WCI -10
BUFFALO        CLEAR      1  -7  69 W8        30.09R WCI -13
MAPLE LAKE     CLEAR      2  -5  73 W8        30.08R WCI -12
$$
MNZ037-044-045-052-053-040900-
   East Central Minnesota

CITY           SKY/WX    TMP DP  RH WIND       PRES   REMARKS
PRINCETON      CLEAR      1  -6  71 W8        30.04R WCI -12
MORA           CLEAR      0  -8  71 W6        30.03R WCI -12
CAMBRIDGE      CLEAR      1  -8  66 W7        30.03R WCI -11
RUSH CITY      MOCLDY    -1  -8  72 W6        30.03R WCI -13
MOOSE LAKE     CLEAR      0  -9  65 CALM      29.96R
HINCKLEY       FAIR       0  -6  78 W5        29.99S WCI -10
CLOQUET        CLEAR     -2 -11  65 W12G20    29.92R WCI -20
MCGREGOR       CLEAR      0  -9  65 W6        29.96S WCI -12
$$
MNZ071>073-080-081-089-090-097-098-040900-
   Southwest Minnesota

CITY           SKY/WX    TMP DP  RH WIND       PRES   REMARKS
MONTEVIDEO     CLEAR      1  -6  71 NW9       30.13R WCI -14
GRANITE FALLS  CLEAR      2  -6  70 W9        30.15R WCI -13
CANBY          CLEAR      3  -6  64 NW14G20   30.14R WCI -14
MARSHALL       CLEAR      1  -6  71 W7        30.13R WCI -11
REDWOOD FALLS  CLEAR      3  -7  63 NW9       30.12R WCI -12
OLIVIA         CLEAR      1  -6  71 NW9       30.11R WCI -14
PIPESTONE      PTCLDY     1  -6  71 NW6       30.10R WCI -10
WINDOM         PTCLDY     1  -6  71 W7        30.12R WCI -11
WORTHINGTON    PTCLDY     1  -8  66 NW8       30.13S WCI -12
JACKSON        PTCLDY     7  -4  61 NW10      30.12R WCI  -8
TRACY          CLEAR      3  -5  69 NW10      30.12R WCI -13
SLAYTON        PTCLDY     0  -9  66 CALM      30.11R
$$
MNZ065>067-074>077-082>085-091>093-040900-
   South Central Minnesota

CITY           SKY/WX    TMP DP  RH WIND       PRES   REMARKS
MANKATO        PTCLDY     3  -6  66 NW15      30.10R WCI -15
NEW ULM        CLEAR      1  -8  66 W8        30.12R WCI -12
ST JAMES       PTCLDY     5  -4  66 W10       30.14R WCI -10
FAIRMONT       PTCLDY     7  -6  56 NW15      30.11R WCI -11
GLENCOE        PTCLDY     3  -4  73 W8        30.09R WCI -11
FARIBAULT      PTCLDY     3  -6  66 W10       30.08R WCI -12
OWATONNA       PTCLDY     3  -2  78 W12       30.08R WCI -13
WASECA         PTCLDY     5  -2  72 W14       30.10R WCI -12
ALBERT LEA     PTCLDY     7  -2  66 NW9       30.08R WCI  -7
$$
MNZ078>079-086>088-094>096-040900-
   Southeast Minnesota

CITY           SKY/WX    TMP DP  RH WIND       PRES   REMARKS
ROCHESTER      CLEAR      4  -4  69 NW17      30.02R WCI -16
RED WING       CLEAR      7  -2  66 NW8       30.06R WCI  -6
STANTON        PTCLDY     5  -5  63 W12       30.07R WCI -11
DODGE CENTER   PTCLDY     5  -2  72 NW13      30.03R WCI -12
WINONA         CLEAR     10   1  67 NW14G20   30.07R WCI  -5
AUSTIN         CLEAR      5  -2  72 NW16G26   30.06R WCI -14
PRESTON        CLEAR      4  -3  74 NW21G28   30.03R WCI -17
$$
ABBREVIATIONS USED IN REMARKS
   TC - TEMPERATURES IN CELSIUS
  WCI - WIND CHILL INDEX
   HX - HEAT INDEX
  VSB - VISIBILITY
$$



USA.gov is the U.S. government's official web portal to all federal, state and local government web resources and services.